SCP
0 0 0 0 0 0 0 0 0 0 0 0 0 0 0 0 0 0 0 0 0 0 0 0 1 1 1 1 1 1 1 1 0 0 0 0 0 0 0 0 0 0 0
0 0 0 0 0 0 0 0 0 0 0 0 0 0 0 0 0 0 0 0 0 0 0 0 1 1 1 1 1 1 1 0 0 0 0 0 0 0 0 0 0 0 0
0 0 0 0 0 0 0 0 0 0 0 0 0 0 0 0 0 0 0 0 0 0 0 0 0 1 1 1 1 1 0 0 0 0 0 0 0 0 0 0 0 0 0
0 0 0 0 0 0 0 0 0 0 0 0 0 0 0 0 0 0 0 0 0 0 0 0 0 0 1 1 1 1 0 0 0 0 0 0 0 0 0 0 0 0 0
0 0 0 0 0 0 0 0 0 0 0 0 0 0 0 0 0 0 0 0 0 0 0 0 0 0 0 1 1 1 0 0 0 0 0 0 0 0 0 0 0 0 0
0 0 0 0 0 0 0 0 0 0 0 0 0 0 0 0 0 0 0 0 0 0 0 0 0 0 0 0 0 1 1 1 0 0 0 0 0 0 0 0 0 0 0
0 0 0 0 0 0 0 0 0 0 0 0 0 0 0 0 0 0 0 0 0 0 0 0 0 0 0 0 0 0 1 1 1 1 0 0 0 0 0 0 0 0 0
0 0 0 0 0 0 0 0 0 0 0 0 0 0 0 0 0 0 0 0 0 0 0 0 0 0 0 0 0 0 0 1 1 1 1 1 0 0 0 0 0 0 0
0 0 0 0 0 0 0 0 0 0 0 0 0 0 0 0 0 0 0 0 0 0 0 0 0 0 0 0 0 0 0 0 1 1 1 1 1 1 0 0 0 0 0
0 0 0 0 0 0 0 0 0 0 0 0 0 0 0 0 0 0 0 0 0 0 0 0 0 0 0 0 0 0 0 0 0 1 1 1 1 1 1 1 0 0 0
0 0 0 0 0 0 0 0 0 0 0 0 0 0 0 0 0 0 0 0 0 0 0 0 0 0 0 0 0 0 0 0 0 0 1 1 1 1 1 1 1 1 1
0 0 0 0 0 0 0 0 0 0 0 0 0 0 0 0 0 0 0 0 0 0 0 0 0 0 0 0 0 0 0 0 0 0 0 0 1 1 1 1 1 1 1
0 0 0 0 0 0 0 0 0 0 0 0 0 0 0 0 0 0 0 0 0 0 0 0 0 0 0 0 0 0 0 0 0 0 0 0 0 1 1 1 1 1 1
0 0 0 0 0 0 0 0 0 0 0 0 0 0 0 0 0 0 0 0 0 0 0 0 0 0 0 0 0 0 0 0 0 0 0 0 0 0 0 1 1 1 1
0 0 0 0 0 0 0 0 0 0 0 0 0 0 0 0 0 0 0 0 0 0 0 0 0 0 0 0 0 0 0 0 0 0 0 0 0 0 0 0 1 1 1
0 0 0 0 0 0 0 0 0 0 0 0 0 0 0 0 0 0 0 0 0 0 0 0 0 0 0 0 0 0 0 0 0 0 0 0 0 0 0 0 0 0 1
0 0 0 0 0 0 0 0 0 0 0 0 0 0 0 0 0 0 0 0 0 0 0 0 0 0 0 0 0 0 0 0 0 0 0 0 0 0 0 0 0 0 0
0 0 0 0 0 0 0 0 0 0 0 0 0 0 0 0 0 0 0 0 0 0 0 0 0 0 0 0 0 0 0 0 0 0 0 0 0 0 0 0 0 0 0
0 0 0 0 0 0 0 0 0 0 0 0 0 0 0 0 0 0 0 0 0 0 0 0 0 0 0 0 0 0 0 0 0 0 0 0 0 0 0 0 0 0 0
0 0 0 0 0 0 0 0 0 0 0 0 0 0 0 0 0 0 0 0 0 0 0 0 0 0 0 0 0 0 0 0 0 0 0 0 0 0 0 0 0 0 0
0 0 0 0 0 0 0 0 0 0 0 0 0 0 0 0 0 0 0 0 0 0 0 0 0 0 0 0 0 0 0 0 0 0 0 0 0 0 0 0 0 0 0
0 0 0 0 0 0 0 0 0 0 0 0 0 0 0 0 0 0 0 0 0 0 0 0 0 0 0 0 0 0 0 0 0 0 0 0 0 0 0 0 0 0 0
0 0 0 0 0 0 0 0 0 0 0 0 0 0 0 0 0 0 0 0 0 0 0 0 0 0 0 0 0 0 0 0 0 0 0 0 0 0 0 0 0 0 0
0 0 0 0 0 0 0 0 0 0 0 0 0 0 0 0 0 0 0 0 0 0 0 0 0 0 0 0 0 0 0 0 0 0 0 0 0 0 0 0 0 0 0
0 0 0 0 0 0 0 0 0 0 0 0 0 0 0 0 0 0 0 0 0 0 0 0 0 0 0 0 0 0 0 0 0 0 0 0 0 0 0 0 0 0 0
0 0 0 0 0 0 0 0 0 0 0 0 0 0 0 0 0 0 0 0 0 0 0 0 0 0 0 0 0 0 0 0 0 0 0 0 0 0 0 0 0 0 0
Wind_Speed
7 6 5 5 5 5 5 6 8 8 7 7 8 8 7 6 6 5 7 7 6 5 4 4 4 6 6 6 7 6 8 7 5 6 6 7 9 10 8 9 9 10 11
6 5 5 5 6 6 6 6 7 8 8 7 6 6 7 6 5 6 6 8 8 6 4 5 5 5 5 6 6 6 6 6 5 6 6 6 7 8 9 8 9 9 9
4 4 4 4 5 6 7 7 8 8 8 8 7 7 6 6 5 7 6 8 9 8 6 5 5 5 6 6 6 6 8 7 6 7 6 6 5 4 6 7 7 7 7
2 3 4 5 6 7 7 8 8 9 8 9 8 10 8 8 7 6 6 7 7 7 7 6 6 5 6 6 7 7 6 8 7 6 7 7 6 5 3 7 7 7 7
2 4 5 7 8 9 9 9 9 9 10 9 9 9 10 8 7 7 6 6 5 5 6 6 5 5 5 6 7 6 8 7 8 7 6 7 6 8 7 4 4 6 7
4 6 7 8 9 9 9 9 10 10 11 11 11 11 11 11 11 10 9 7 5 4 4 5 4 5 5 5 6 7 9 9 9 8 7 6 6 7 7 6 6 5 5
6 8 10 10 10 11 11 11 12 12 12 12 12 12 12 12 13 12 10 9 8 6 4 4 3 4 4 5 6 7 9 9 10 10 8 8 8 6 6 6 6 5 4
8 10 11 11 11 11 12 12 13 13 13 13 12 12 13 11 11 11 11 11 10 9 7 6 6 5 5 6 5 6 8 8 10 11 11 8 8 7 7 7 6 6 6
9 11 12 11 11 12 13 13 13 14 14 14 14 13 13 12 13 13 13 12 10 10 11 10 9 8 7 6 6 6 7 7 9 10 11 10 9 8 8 7 7 7 6
11 13 13 12 12 13 14 14 14 14 15 15 14 12 14 14 14 14 14 14 14 13 13 13 12 11 10 8 7 7 7 7 8 7 10 10 9 8 8 8 8 8 7
14 13 13 12 14 15 15 15 15 15 15 15 14 14 14 15 15 14 14 14 14 14 14 14 14 13 13 11 10 10 8 8 8 8 9 11 11 9 9 9 9 8 8
14 14 14 14 15 16 16 16 16 16 16 15 15 15 15 15 15 16 15 15 14 14 15 15 15 15 15 14 13 12 11 10 10 9 8 9 8 11 10 9 10 9 9
14 14 14 15 15 16 16 16 16 16 16 16 16 16 16 16 16 16 16 15 15 15 15 15 16 16 16 15 15 14 13 12 11 10 10 9 8 9 8 9 10 9 9
13 14 15 15 15 16 16 16 16 16 16 16 16 16 16 16 16 16 16 16 15 16 15 16 16 16 16 17 16 15 14 13 12 11 11 10 9 8 8 8 9 8 9
14 15 16 16 16 16 15 15 16 15 15 16 16 16 16 16 16 16 16 16 16 16 16 16 16 16 15 15 16 15 15 14 14 13 12 11 10 9 7 5 6 7 7
15 16 17 17 17 16 16 16 16 15 15 16 17 17 17 17 17 16 16 16 16 16 16 16 16 16 15 14 14 14 15 14 14 13 12 11 12 12 12 11 9 8 8
16 17 17 17 16 16 16 16 16 16 16 16 16 17 17 17 17 17 17 17 16 16 15 16 16 16 16 13 12 15 15 14 13 13 11 11 11 13 12 12 12 11 11
16 17 16 17 16 16 15 15 15 15 16 16 16 16 17 17 17 17 17 17 15 14 14 14 15 15 15 14 14 14 15 15 14 13 13 12 10 11 11 11 10 10 11
15 15 16 17 16 15 15 15 15 15 16 16 16 17 17 17 18 17 17 15 14 14 14 13 14 14 13 12 14 14 13 12 14 13 13 13 12 10 9 10 10 9 9
14 15 15 16 15 14 14 15 16 16 16 16 16 17 17 17 17 17 16 14 13 13 13 12 12 12 11 11 14 15 11 12 11 10 11 11 11 9 12 11 10 10 9
15 15 15 14 14 14 14 15 15 15 15 15 16 17 16 16 16 15 13 13 12 11 11 11 9 9 9 10 13 14 10 9 10 9 10 9 13 10 10 10 10 8 7
15 15 14 15 14 13 13 14 15 15 15 15 16 16 16 15 13 14 13 12 10 10 9 7 7 5 5 7 10 12 10 7 8 8 7 6 13 12 11 10 8 6 6
15 14 15 16 14 13 13 14 15 15 15 15 15 15 15 14 12 12 12 10 8 6 5 4 4 3 3 5 9 11 10 9 8 7 2 4 9 10 10 11 9 9 8
14 14 15 15 15 15 14 14 14 14 14 14 14 13 13 13 11 9 8 8 7 6 4 4 3 3 4 5 7 9 10 11 11 9 7 8 8 8 7 8 10 10 9
13 14 14 15 15 15 14 14 13 13 14 14 13 12 12 11 10 9 7 7 6 5 6 4 3 2 2 1 1 4 6 8 8 8 8 9 10 10 10 9 9 8 9
14 14 15 15 15 15 14 14 13 13 13 12 11 10 9 9 9 8 6 2 2 3 3 4 5 3 2 3 1 2 2 1 2 6 8 9 9 9 9 9 8 8 8
Wind_Direction
85 79 72 64 60 45 32 23 16 16 4 3 351 346 341 335 337 342 349 339 328 306 283 269 262 258 252 250 252 245 237 237 236 242 239 229 225 228 229 233 240 233 229
89 78 68 60 45 36 21 12 10 7 358 1 343 337 334 330 338 342 350 349 343 335 311 293 276 266 267 255 253 245 258 248 223 242 247 237 217 212 224 223 223 236 233
76 65 47 35 24 17 5 0 353 347 349 342 333 338 331 328 349 351 356 354 347 348 345 325 306 288 271 257 249 243 243 254 237 235 252 254 244 209 189 215 223 222 230
64 30 5 1 356 352 348 346 339 335 332 324 331 333 328 331 338 333 344 341 348 352 353 344 332 311 288 271 254 240 246 249 248 224 239 267 311 283 211 188 199 207 219
338 338 336 337 337 337 337 337 335 329 325 319 310 304 308 316 316 320 322 320 333 341 350 349 340 328 306 293 276 264 248 243 248 244 225 223 227 244 269 241 192 198 211
310 318 322 325 327 328 330 332 332 328 324 316 309 300 300 300 302 302 305 304 308 310 325 327 332 320 315 306 289 270 249 247 249 254 245 229 225 221 230 241 233 228 218
303 314 320 324 324 326 328 327 326 324 321 315 308 301 297 293 286 285 290 292 293 290 287 294 295 301 301 297 293 282 271 253 243 239 242 242 243 246 236 241 238 236 234
314 320 322 320 320 322 325 325 326 322 319 315 311 305 297 290 290 292 295 291 286 287 287 269 260 258 264 274 278 280 275 266 253 243 241 243 240 237 235 237 237 228 223
317 320 321 318 321 322 323 323 322 319 318 317 314 302 298 297 296 296 285 281 281 279 273 264 256 250 246 250 258 263 272 276 265 254 242 238 239 234 232 231 234 241 237
317 322 322 320 321 319 320 320 318 318 315 313 313 312 311 304 298 292 291 290 287 281 275 268 262 254 244 235 236 247 251 260 266 267 261 248 241 234 228 225 225 233 251
323 324 322 322 320 319 321 321 320 318 316 316 315 311 307 305 301 294 289 286 283 281 273 266 260 255 249 240 233 239 239 244 254 262 261 253 249 242 231 224 220 220 226
322 321 322 321 320 321 321 320 319 316 315 315 312 308 306 303 300 297 297 293 285 278 272 266 259 254 250 243 236 236 237 237 241 245 253 258 252 244 241 231 222 217 217
321 319 319 320 319 319 318 317 314 314 315 313 310 308 306 306 304 302 298 294 288 281 274 267 260 254 251 247 240 236 235 235 237 237 238 243 246 248 241 239 231 221 213
317 317 318 317 317 316 315 313 312 314 312 311 308 306 305 305 303 301 298 294 289 284 277 268 261 255 250 246 241 236 233 233 234 234 234 233 232 238 242 240 241 233 219
317 318 317 317 316 315 315 313 312 312 312 309 306 306 307 305 302 299 297 294 290 285 279 271 262 255 249 243 237 235 233 232 232 229 229 228 222 225 230 237 241 242 227
319 319 317 317 316 316 314 313 312 312 311 307 307 308 306 305 303 301 298 294 289 286 282 273 265 257 250 239 227 229 234 231 230 231 228 225 211 213 217 228 235 241 238
319 318 318 316 315 314 314 312 312 312 310 307 305 306 306 305 304 302 301 297 293 290 285 277 268 260 252 243 218 215 232 233 230 229 227 228 214 200 210 211 219 232 240
317 317 316 315 314 315 315 314 312 311 309 306 307 308 307 305 305 302 300 298 295 290 285 277 270 264 252 229 210 206 225 232 229 228 226 227 228 208 206 207 206 213 219
315 314 314 314 315 315 317 315 312 311 308 308 310 310 309 306 304 302 300 298 295 289 284 275 269 262 252 224 201 199 221 225 226 226 225 222 222 202 192 216 216 214 217
317 316 314 313 314 319 320 315 313 312 310 311 310 309 308 305 303 302 302 299 296 289 286 278 270 260 248 217 195 199 219 220 221 219 223 220 228 193 186 216 222 221 216
317 315 314 313 318 320 318 312 311 310 312 311 308 308 308 306 304 305 304 303 299 293 287 281 271 261 245 207 191 196 217 217 221 220 215 209 189 198 197 222 232 228 225
319 320 317 316 319 320 319 313 311 312 312 310 309 309 311 310 311 310 308 307 305 300 296 286 276 258 224 199 186 192 214 241 238 236 234 196 169 186 196 215 230 219 222
320 319 318 317 319 324 323 314 313 314 313 311 310 310 313 312 313 314 315 316 314 307 302 289 274 247 210 182 180 192 204 221 240 246 260 130 158 182 202 215 219 217 221
321 321 321 320 321 324 322 316 314 316 314 312 312 312 314 315 319 318 319 321 318 314 313 304 285 248 211 196 189 196 199 206 222 234 206 179 186 224 244 207 206 221 226
321 321 320 319 320 322 321 320 321 320 317 313 312 313 315 318 315 319 327 327 337 345 323 315 306 285 236 170 158 228 213 214 212 213 215 212 206 211 217 220 218 218 215
320 319 321 322 323 322 321 322 325 323 318 314 314 313 316 316 315 321 330 359 322 358 351 333 323 320 13 24 328 259 270 266 185 218 221 219 218 220 219 218 217 216 218